星链-5927 (STARLINK-5927 )

导读 | 豆包AI

STARLINK-5927是美国太空探索技术公司星链星座的一员,于2023年3月17日发射升空,属于星链网络扩容批次。它依托猎鹰九号火箭完成部署,进入近地轨道运行,为全球提供高速低延迟互联网覆盖,尤其服务偏远地区与移动场景,是星链全球星座组网建设中的重要节点,支撑美国卫星互联网的服务能力拓展。

基本信息
目录编号:
55934
目录名称:
STARLINK-5927
国际标识:
2023-037W
轨道中心:
EARTH
卫星名称:
星链-5927
卫星全名:
星链-5927 (STARLINK-5927 )
卫星状态:
在轨 (已飞行1140 天)
发射日期:
2023-03-17 UTC
国别 :
美国 (US)
星等 :
--
轨道信息
数据来源 国际轨道数据 AOE轨道数据
星历时间 2026-04-30T12:12:44+0800
6小时前
查看轨道信息
2026-04-30T09:00:00+0800
9小时前
查看轨道信息
半长轴 6950.194km 6950.17km
偏心率 0.0003617 0.0003567
轨道倾角 69.999° 69.999°
近地点辐角 269.260° 271.631°
升交点赤经 154.589° 154.928°
平近点角 90.815° 86.696°
近地点 569.543km 569.553km
远地点 574.571km 574.513km
周期 96.107分钟 96.107分钟
每日圈数 14.983299 14.983377
详细信息
固有亮度:
5
最大亮度:
2.5
卫星平台:
Starlink v1.5
覆盖范围:
全球
运营商:
太空探索技术公司
运营商所在国:
美国
制造商(研发单位):
太空探索技术公司
制造商所在国:
美国
使用方式:
暂无
卫星简介
星链(Starlink)计划是由太空探索技术公司(SpaceX)提出的一个巨型低轨卫星互联网星座项目,计划在2019年至2024年间在太空搭建由约1.2万颗卫星组成的“星链”网络,其中1584颗将部署在地球上空550千米处的近地轨道,并从2020年开始工作。该卫星仍在工作。
2D轨道图
3D轨道图
轨道高度分析图
轨道倾角分析图
轨道综合分析图
查看轨道综合分析图